www.pogodaiklimat.ru

Погода и климат >> Архив погоды >> Аргентина >> Santiago del Estero


ПОГОДА в Santiago del Estero

  • Прогноз погоды в Santiago del Estero
  • Монитор погоды в Santiago del Estero
  • Климат города

АРХИВ ПОГОДЫ в Santiago del Estero

Время (UTC), дата Ветер
(напр.,м/с)
 
Видим.   Явления Облачность Т
(С)
Тd
(С)
f
(%)
Тe
(С)
Тes
(С)
Комфортность P
(гПа)
Po
(гПа)
Тmin
(С)
Tmax
(С)
R
(мм)
R24
(мм)
S
(см)
03 13.11 С 3 10 км ясно +27.2 +9.8 34 +28 +28 жарко 1007.5 985.3
06 13.11 СВ 4 10 км ясно +24.6 +10.8 42 +26 +26 жарко 1006.5 984.2
09 13.11 СВ 4 10 км 3/0
[Ci]
+21.8 +8.8 43 +23 +23 комфорт 1007.7 985.4
12 13.11 С 6 10 км 1/0
[Ci sp]
+25.8 +10.9 39 +27 +29 жарко 1010.0 987.6 +21.0 +31.2
15 13.11 С 5 10 км ясно +33.8 +9.4 22 +33 +43 жарко 1009.2 986.9
18 13.11 СВ 8 10 км ясно +36.8 +9.3 19 +35 +38 очень
жарко
1006.2 984.0
21 13.11 СВ 4 10 км ясно +36.5 +9.3 19 +35 +38 очень
жарко
1003.6 981.4
00 14.11 СВ 5 10 км ясно +31.7 +10.6 27 +31 +31 жарко 1004.8 982.5 +25.8 +38.0
03 14.11 СВ 3 10 км ясно +28.0 +10.8 34 +29 +29 жарко 1006.1 983.8
06 14.11 СВ 3 10 км ясно +25.2 +11.7 43 +27 +27 жарко 1004.9 982.8
09 14.11 СВ 2 10 км ясно +22.6 +11.7 50 +25 +25 комфорт 1005.5 983.3
12 14.11 С 4 20 км ясно +26.6 +11.8 40 +28 +32 жарко 1006.6 984.2 +22.5 +31.7
15 14.11 С 7 10 км ясно +34.8 +8.7 20 +33 +38 жарко 1004.3 982.2
18 14.11 СВ 7 10 км ясно +38.8 +9.3 17 +37 +42 очень
жарко
1000.7 978.6
21 14.11 С 5 10 км ясно +38.8 +9.9 18 +37 +40 очень
жарко
998.4 976.9
00 15.11 С 1 10 км ясно +33.0 +12.5 29 +33 +33 жарко 1000.0 978.1 +20.0 +40.0
03 15.11 СВ 1 10 км ясно +29.0 +12.0 35 +30 +30 жарко 1000.8 978.6
06 15.11 СВ 2 10 км ясно +25.6 +12.2 43 +27 +27 жарко 999.1 976.6
09 15.11 С 2 10 км ясно +23.0 +11.8 49 +25 +25 комфорт 999.2 976.6
12 15.11 С 5 10 км ясно +29.0 +12.3 36 +30 +33 жарко 998.7 976.6 +23.0 +33.0
15 15.11 С 3 10 км ясно +38.3 +11.5 20 +37 +54 опасность
солнечного
удара
996.7 974.9
18 15.11 С 6 10 км ясно +43.1 +11.9 16 +42 +49 опасность
перегрева
994.3 972.6
21 15.11 СВ 4 12 км ясно +43.2 +8.5 13 +41 +44 опасность
перегрева
993.5 971.4
00 16.11 ЮВ 9 2000 м пыльный позёмок 4/0
[Ac As]
+30.6 +4.4 19 +31 +31 жарко 1000.2 978.1 +29.0 +44.5
03 16.11 Ю 11 5000 м 4/0
[Cs]
+24.6 +2.0 23 +24 +24 комфорт 1009.5 987.3
06 16.11 Ю 9 8000 м 10/6 750 м
[St Ac As]
+19.9 +3.7 34 +20 +20 1014.2 991.8
09 16.11 Ю 6 10 км 6/0
[Ac As Cs]
+19.6 +1.5 30 +19 +19 1015.0 992.6
12 16.11 Ю 3 10 км 9/0
[Ac As]
+19.2 +4.1 37 +20 +22 1018.2 995.3 +19.2 +30.6
15 16.11 ЮВ 4 10 км 8/0
[Ac As Cs]
+23.2 +2.4 26 +23 +31 комфорт 1016.9 994.0
18 16.11 В 2 10 км 4/0
[Cs]
+26.4 +1.3 19 +25 +43 комфорт 1012.9 990.0
21 16.11 СВ 2 12 км 4/0
[Ci fib]
+27.4 +6.9 27 +27 +31 жарко 1009.0 986.2
00 17.11 штиль 0 10 км ясно +22.6 +7.7 38 +24 +24 комфорт 1009.6 986.6 +19.2 +28.5
03 17.11 штиль 0 10 км ясно +21.2 +7.4 41 +22 +22 комфорт 1010.0 987.0
06 17.11 СВ 1 10 км ясно +20.0 +8.7 48 +22 +22 комфорт 1008.0 985.2
09 17.11 штиль 0 10 км ясно +13.8 +5.4 57 +14 +14 1006.7 983.8
12 17.11 СВ 2 10 км ясно +20.0 +9.9 52 +22 +29 комфорт 1007.1 984.2 +12.5 +22.6
15 17.11 В 3 10 км ясно +25.6 +10.8 39 +27 +43 жарко 1005.5 982.8
18 17.11 ЮВ 2 10 км ясно +31.1 +11.7 30 +31 +50 жарко 1003.2 980.6
21 17.11 В 3 10 км ясно +32.4 +12.2 29 +33 +36 жарко 1001.6 979.0
00 18.11 штиль 0 10 км 5/0
[Ac As Cs]
+27.4 +14.0 44 +30 +30 жарко 1003.4 980.9 +20.0 +33.7
03 18.11 В 1 10 км 4/0
[Ac As]
+26.0 +10.5 38 +27 +27 жарко 1007.2 984.5
06 18.11 ЮВ 4 10 км 9/5 1350 м
[Sc Ac As]
+23.2 +6.7 35 +24 +24 комфорт 1009.8 986.9
09 18.11 Ю 4 10 км 10/8 1050 м
[Sc Ac As]
+20.8 +2.0 29 +21 +21 комфорт 1013.5 990.1
12 18.11 Ю 6 10 км 10/4 1350 м
[Sc Ac As]
+18.3 +1.9 33 +18 +18 1017.5 994.5 +18.1 +27.4
15 18.11 Ю 2 10 км 10/0
[Ac As]
+19.6 +5.3 39 +21 +27 комфорт 1018.0 995.0
18 18.11 С 2 10 км 9/0
[Ac As]
+23.6 +5.1 30 +23 +31 комфорт 1014.8 991.8
21 18.11 В 2 12 км ясно +25.2 +4.8 27 +25 +29 комфорт 1011.5 988.6
00 19.11 штиль 0 10 км ясно +19.0 +7.3 47 +19 +19 1012.3 989.0 +18.1 +25.3
03 19.11 С 2 10 км ясно +14.4 +5.6 55 +14 +14 1013.3 989.8
06 19.11 штиль 0 10 км ясно +11.1 +6.0 71 +11 +11 1011.1 987.8
09 19.11 штиль 0 10 км ясно +9.7 +6.3 79 +9 +9 1010.5 987.2
12 19.11 С 3 15 км ясно +21.6 +6.4 37 +22 +28 комфорт 1011.1 988.0 +8.0 +21.6
15 19.11 СВ 5 15 км ясно +29.0 +6.2 24 +28 +38 жарко 1009.9 987.0
18 19.11 СВ 4 15 км ясно +32.8 +5.4 18 +31 +44 жарко 1007.0 984.2
21 19.11 С 3 15 км ясно +33.7 +5.9 18 +32 +35 жарко 1004.6 981.8
00 20.11 СВ 3 12 км ясно +28.3 +8.2 28 +28 +28 жарко 1004.6 982.0 +21.6 +34.0

 

Местоположение метеостанции Santiago del Estero (Аргентина): широта -27.76 долгота -64.30 высота над уровнем моря 199 м.

В архиве по умолчанию представлена погода в Santiago del Estero за последнюю неделю. Архивные данные за месяц целиком и за предыдущие месяцы, начиная с января 2011 года, Вы можете получить, выбрав интересующий диапазон дат из раскрывающегося списка и нажав кнопку "Ввод!".

Внимание! Время в таблицах - всемирное. Для получения местного времени необходимо прибавить поправку, которая в Santiago del Estero равна -3 ч.

Смотрите также архив погоды в соседних городах и на ближайших метеорологических станциях:

Погода в San Miguel de Tucuman (Аргентина) (128 км)
Погода в San Fernando del Valle de Catamarca (Аргентина) (171 км)
Погода в Villa de Maria del Rio Seco (Аргентина) (246 км)
Погода в La Rioja (Аргентина) (304 км)
Погода в Ceres (Аргентина) (329 км)
Погода в Salta (Аргентина) (344 км)
Погода в Chamical (Аргентина) (347 км)
Погода в San Salvador de Jujuy (Аргентина) (384 км)
Погода в Presidencia Roque Saenz Pena (Аргентина) (395 км)
Погода в Cordoba (Аргентина) (395 км)

Пояснения к столбцам:

Ветер - указаны скорость ветра в м/с - средняя за 10 мин, порывы в срок и между сроками (в фигурных скобках) и направление, откуда дует ветер: С - северный, СВ - северо-восточный, В - восточный, ЮВ - юго-восточный, Ю - южный, ЮЗ - юго-западный, З - западный, СЗ - северо-западный.
Видимость - горизонтальная дальность видимости в метрах или километрах. При видимости от 1 до 10 км при отсутствии осадков обычно наблюдается дымка, при ухудшении видимости до 1 км и менее - туман. В сухую погоду видимость может ухудшаться дымом, пылью или мглою.
Явления - указаны атмосферные явления, наблюдавшиеся в срок или в последний час перед сроком; фигурными скобками обозначены явления, наблюдавшиеся между сроками (за 1-3 часа до срока); квадратными скобками обозначены град или гололедные отложения с указанием их диаметра в мм.
Облачность - указаны через наклонную черту общая и нижняя облачность в баллах и высота нижней границы облаков в метрах; квадратными скобками обозначены формы облаков: Ci - перистые, Cs - перисто-слоистые, Cc - перисто-кучевые, Ac - высококучевые, As - высокослоистые, Sc - слоисто-кучевые, Ns - слоисто-дождевые, Cu - кучевые, Cb - кучево-дождевые. Подробнее классификацию облаков см. в Атласе облаков (PDF).
T - Температура воздуха - температура, измеренная на высоте 2 м над землей.
Td - Температура точки росы - температура, при понижении до которой содержащийся в воздухе водяной пар достигнет насыщения.
f - Относительная влажность воздуха - влажноcть воздуха, измеренная на высоте 2 м над землей.
Te - Эффективная температура - температура, которую ощущает одетый по сезону человек в тени. Характеристика душности погоды. При расчете учитывается влияние влажности воздуха и скорости ветра на теплоощущения человека.
Tes - Эффективная температура на солнце - температура, которую ощущает человек, с поправкой на солнечный нагрев. Характеристика знойности погоды. Зависит от высоты солнца над горизонтом, облачности и скорости ветра. Ночью, в пасмурную погоду, а также при ветре 12 м/с и более поправка равна нулю.
P - Атмосферное давление - приведенное к уровню моря атмосферное давление.
Po - Атмосферное давление - измеренное на уровне метеостанции атмосферное давление.
Tmin - Минимальная температура - минимум температуры воздуха на высоте 2 м над землей.
Tmax - Максимальная температура - максимум температуры воздуха на высоте 2 м над землей.
R - Количество осадков - Количество выпавших осадков за период времени, мм. При наведении курсора мыши на число - период времени, за который выпало указанное количество осадков.
R24 - Количество осадков - Количество выпавших осадков за 24 часа, мм.
S - Снежный покров - Высота снежного покрова, см. При наведении курсора мыши на число - состояние снежного покрова и степень покрытия местности в баллах.